Location: Melbourne
(37.8170°S, 144.9670°E)
Time: 16:58:47
(UTC+11:00)

Transit 2A - All Passes

Search period start: 28 February 2017 00:00
Search period end: 10 March 2017 00:00
Orbit: 602 x 958 km, 66.7° (Epoch: 27 February)

Date Brightness Start Highest point End Pass type
(mag) Time Alt. Az. Time Alt. Az. Time Alt. Az.
28 Feb - 00:11:44 10° NNE 00:16:01 25° ENE 00:20:40 10° SE visible
28 Feb - 01:53:39 10° NW 01:58:52 45° SW 02:04:39 10° SSE visible
28 Feb - 08:59:41 10° S 09:04:22 21° SE 09:08:58 10° E daylight
28 Feb - 10:41:58 10° SSW 10:48:24 78° WNW 10:54:29 10° NNE daylight
28 Feb - 12:29:26 10° W 12:30:33 10° W 12:31:40 10° WNW daylight
28 Feb - 23:38:59 10° NE 23:42:18 17° ENE 23:45:47 10° ESE visible
01 Mar - 01:19:23 10° NW 01:24:45 65° WSW 01:30:46 10° SSE visible
01 Mar - 03:06:54 10° WSW 03:09:21 13° SW 03:11:53 10° SSW visible
01 Mar - 08:26:15 10° S 08:30:00 16° SE 08:33:40 10° ESE daylight
01 Mar - 10:07:57 10° SSW 10:14:23 76° ESE 10:20:29 10° NNE daylight
01 Mar - 11:53:07 10° WSW 11:56:52 17° WNW 12:00:31 10° NW daylight
01 Mar - 23:07:48 10° ENE 23:08:37 10° E 23:09:27 10° E night (unlit)
02 Mar - 00:45:20 10° NNW 00:50:44 88° ENE 00:56:47 10° SSE visible
02 Mar - 02:31:17 10° W 02:34:56 17° SW 02:38:45 10° S visible
02 Mar - 07:53:16 10° SSE 07:55:32 12° SE 07:57:47 10° ESE daylight
02 Mar - 09:34:01 10° SSW 09:40:18 55° ESE 09:46:18 10° NE daylight
02 Mar - 11:18:11 10° SW 11:23:08 24° WNW 11:27:53 10° NNW daylight
03 Mar - 00:11:29 10° NNW 00:16:46 61° ENE 00:22:40 10° SE visible
03 Mar - 01:56:10 10° W 02:00:34 23° SW 02:05:16 10° S visible
03 Mar - 09:00:10 10° SSW 09:06:09 40° SE 09:11:53 10° ENE daylight
03 Mar - 10:43:40 10° SW 10:49:21 35° WNW 10:54:45 10° N daylight
03 Mar - 23:37:53 10° N 23:42:54 41° ENE 23:48:27 10° SE visible
04 Mar - 01:21:23 10° WNW 01:26:17 30° SW 01:31:36 10° S visible
04 Mar - 08:26:24 10° S 08:31:56 29° SE 08:37:16 10° ENE daylight
04 Mar - 10:09:20 10° SW 10:15:29 50° WNW 10:21:17 10° N daylight
04 Mar - 23:04:35 10° NNE 23:09:06 28° ENE 23:14:01 10° SE visible
05 Mar - 00:46:50 10° NW 00:52:04 42° SW 00:57:50 10° SSE visible
05 Mar - 07:52:46 10° S 07:57:38 22° SE 08:02:23 10° E daylight
05 Mar - 09:35:11 10° SSW 09:41:34 72° WNW 09:47:34 10° NNE daylight
05 Mar - 22:31:41 10° NE 22:35:22 19° ENE 22:39:17 10° ESE night (unlit)
06 Mar - 00:12:31 10° NW 00:17:56 59° WSW 00:23:57 10° SSE visible
06 Mar - 02:00:28 10° WSW 02:02:37 12° SW 02:04:50 10° SSW visible
06 Mar - 07:19:17 10° S 07:23:16 17° SE 07:27:11 10° E daylight
06 Mar - 09:01:08 10° SSW 09:07:34 82° ESE 09:13:38 10° NNE daylight
06 Mar - 10:46:40 10° WSW 10:49:57 15° W 10:53:10 10° NW daylight
06 Mar - 21:59:40 10° ENE 22:01:40 12° E 22:03:45 10° ESE night (unlit)
06 Mar - 23:38:25 10° NNW 23:43:53 85° WSW 23:49:59 10° SSE visible
07 Mar - 01:24:41 10° WSW 01:28:10 16° SW 01:31:49 10° S visible
07 Mar - 06:46:08 10° SSE 06:48:50 13° SE 06:51:30 10° ESE visible
07 Mar - 08:27:11 10° SSW 08:33:31 59° ESE 08:39:30 10° NE daylight
07 Mar - 10:11:34 10° WSW 10:16:14 22° WNW 10:20:43 10° NNW daylight
07 Mar - 23:04:30 10° NNW 23:09:54 67° ENE 23:15:55 10° SSE visible
08 Mar - 00:49:30 10° W 00:53:48 21° SW 00:58:22 10° S visible
08 Mar - 07:53:18 10° SSW 07:59:23 43° SE 08:05:09 10° NE daylight
08 Mar - 09:36:58 10° SW 09:42:28 32° WNW 09:47:41 10° NNW daylight
08 Mar - 22:30:51 10° N 22:36:01 45° ENE 22:41:43 10° SE visible
09 Mar - 00:14:38 10° WNW 00:19:30 29° SW 00:24:45 10° S visible
09 Mar - 07:19:31 10° S 07:25:10 31° SE 07:30:35 10° ENE daylight
09 Mar - 09:02:35 10° SW 09:08:38 46° WNW 09:14:18 10° N daylight
09 Mar - 21:57:27 10° NNE 22:02:12 31° ENE 22:07:21 10° SE visible
09 Mar - 23:40:02 10° WNW 23:45:15 39° SW 23:50:59 10° SSE visible
